When you browse on this site, cookies collect data to enhance your experience and personalize the content and advertising you see.
Visit our Privacy Policy to learn more. By continuing to use the site, you agree to this use of cookies and data.
  • In Romania
  • List of Countries
  • For 7 days
  • Water Temperature
  • Satellite Maps
  • Weather Map
  • Weather Widgets
  • user-avatar
    Login

    Hourly Weather Tibissa

    Today, 22 March, Friday

    Time Temperature Precipitation Wind Pressure Humidity
    00:00 +5°C° 0.3 mm 3 mps 682 mmHg 91%
    01:00 +5°C° 0 mm 2 mps 682 mmHg 92%
    02:00 +5°C° 0.1 mm 2 mps 682 mmHg 93%
    03:00 +4°C° 0.1 mm 2 mps 682 mmHg 94%
    04:00 +4°C° 0.1 mm 2 mps 682 mmHg 95%
    05:00 +4°C° 0 mm 2 mps 683 mmHg 96%
    06:00 +4°C° 0 mm 2 mps 683 mmHg 96%
    07:00 +4°C° 0 mm 2 mps 683 mmHg 97%
    08:00 +5°C° 0 mm 2 mps 684 mmHg 91%
    09:00 +6°C° 0 mm 2 mps 684 mmHg 86%
    10:00 +5°C° 0 mm 3 mps 684 mmHg 80%
    11:00 +7°C° 0.2 mm 3 mps 684 mmHg 75%
    12:00 +7°C° 0.2 mm 4 mps 684 mmHg 70%
    13:00 +8°C° 0.2 mm 4 mps 685 mmHg 65%
    14:00 +10°C° 0.6 mm 4 mps 684 mmHg 65%
    15:00 +9°C° 0.6 mm 5 mps 684 mmHg 64%
    16:00 +9°C° 0.6 mm 5 mps 684 mmHg 64%
    17:00 +8°C° 0.8 mm 5 mps 684 mmHg 70%
    18:00 +8°C° 0.8 mm 5 mps 684 mmHg 76%
    19:00 +7°C° 0.8 mm 5 mps 684 mmHg 82%
    20:00 +6°C° 0.7 mm 4 mps 684 mmHg 84%
    21:00 +6°C° 0.7 mm 4 mps 685 mmHg 86%
    22:00 +7°C° 0.7 mm 3 mps 685 mmHg 88%
    23:00 +7°C° 0.2 mm 3 mps 685 mmHg 87%

    Tomorrow, 23 March, Saturday

    Time Temperature Precipitation Wind Pressure Humidity
    00:00 +7°C° 0.2 mm 3 mps 685 mmHg 87%
    01:00 +5°C° 0.2 mm 3 mps 685 mmHg 87%
    02:00 +5°C° 0 mm 3 mps 685 mmHg 88%
    03:00 +5°C° 0 mm 3 mps 684 mmHg 90%
    04:00 +5°C° 0 mm 4 mps 684 mmHg 92%
    05:00 +5°C° 0 mm 4 mps 684 mmHg 91%
    06:00 +5°C° 0 mm 3 mps 685 mmHg 91%
    07:00 +5°C° 0 mm 3 mps 685 mmHg 91%
    08:00 +5°C° 0.2 mm 3 mps 685 mmHg 91%
    09:00 +7°C° 0.2 mm 3 mps 686 mmHg 92%
    10:00 +7°C° 0.2 mm 3 mps 686 mmHg 92%
    11:00 +7°C° 1.2 mm 3 mps 686 mmHg 92%
    12:00 +6°C° 1.2 mm 4 mps 686 mmHg 92%
    13:00 +6°C° 1.2 mm 4 mps 686 mmHg 92%
    14:00 +7°C° 0.4 mm 5 mps 686 mmHg 90%
    15:00 +7°C° 0.4 mm 5 mps 686 mmHg 87%
    16:00 +8°C° 0.4 mm 6 mps 686 mmHg 85%
    17:00 +8°C° 0.1 mm 6 mps 687 mmHg 85%
    18:00 +7°C° 0.1 mm 5 mps 687 mmHg 85%
    19:00 +7°C° 0.1 mm 4 mps 687 mmHg 85%
    20:00 +6°C° 0 mm 4 mps 687 mmHg 88%
    21:00 +7°C° 0 mm 3 mps 688 mmHg 91%
    22:00 +6°C° 0 mm 2 mps 688 mmHg 94%
    23:00 +6°C° 0 mm 2 mps 688 mmHg 95%

    Day after tomorrow, 24 March, Sunday

    Time Temperature Precipitation Wind Pressure Humidity
    00:00 +6°C° 0 mm 2 mps 688 mmHg 96%
    01:00 +6°C° 0 mm 1 mps 688 mmHg 97%
    02:00 +6°C° 0 mm 1 mps 688 mmHg 97%
    03:00 +6°C° 0 mm 1 mps 688 mmHg 97%
    04:00 +6°C° 0 mm 1 mps 688 mmHg 98%
    05:00 +6°C° 0 mm 1 mps 688 mmHg 97%
    06:00 +7°C° 0 mm 1 mps 688 mmHg 97%
    07:00 +7°C° 0 mm 1 mps 689 mmHg 96%
    08:00 +8°C° 0 mm 1 mps 689 mmHg 88%
    09:00 +9°C° 0 mm 1 mps 690 mmHg 79%
    10:00 +10°C° 0 mm 1 mps 690 mmHg 70%
    11:00 +12°C° 0 mm 1 mps 690 mmHg 62%
    12:00 +13°C° 0 mm 1 mps 690 mmHg 54%
    13:00 +14°C° 0 mm 1 mps 690 mmHg 45%
    14:00 +15°C° 0 mm 1 mps 690 mmHg 43%
    15:00 +15°C° 0 mm 1 mps 689 mmHg 40%
    16:00 +16°C° 0 mm 1 mps 689 mmHg 38%
    17:00 +15°C° 0 mm 1 mps 689 mmHg 41%
    18:00 +14°C° 0 mm 1 mps 689 mmHg 44%
    19:00 +14°C° 0 mm 2 mps 689 mmHg 47%
    20:00 +13°C° 0 mm 2 mps 689 mmHg 51%
    21:00 +12°C° 0 mm 1 mps 689 mmHg 56%
    22:00 +11°C° 0 mm 1 mps 690 mmHg 60%
    23:00 +11°C° 0 mm 1 mps 689 mmHg 62%

    25 March, Monday

    Time Temperature Precipitation Wind Pressure Humidity
    00:00 +10°C° 0 mm 2 mps 689 mmHg 63%
    01:00 +9°C° 0 mm 2 mps 689 mmHg 65%
    02:00 +9°C° 0 mm 2 mps 689 mmHg 67%
    03:00 +9°C° 0 mm 2 mps 689 mmHg 68%
    04:00 +8°C° 0 mm 2 mps 688 mmHg 70%
    05:00 +8°C° 0 mm 2 mps 688 mmHg 71%
    06:00 +8°C° 0 mm 2 mps 688 mmHg 72%
    07:00 +8°C° 0 mm 2 mps 688 mmHg 72%
    08:00 +10°C° 0 mm 2 mps 689 mmHg 64%
    09:00 +12°C° 0 mm 3 mps 689 mmHg 56%
    10:00 +13°C° 0 mm 3 mps 690 mmHg 48%
    11:00 +14°C° 0 mm 3 mps 690 mmHg 45%
    12:00 +17°C° 0 mm 3 mps 689 mmHg 42%
    13:00 +18°C° 0 mm 3 mps 689 mmHg 39%
    14:00 +18°C° 0 mm 3 mps 689 mmHg 38%
    15:00 +18°C° 0 mm 4 mps 688 mmHg 37%
    16:00 +18°C° 0 mm 4 mps 688 mmHg 36%
    17:00 +17°C° 0 mm 4 mps 687 mmHg 42%
    18:00 +15°C° 0 mm 4 mps 687 mmHg 48%
    19:00 +14°C° 0 mm 4 mps 687 mmHg 54%
    20:00 +13°C° 0 mm 3 mps 687 mmHg 61%
    21:00 +13°C° 0 mm 2 mps 687 mmHg 67%
    22:00 +12°C° 0 mm 1 mps 687 mmHg 74%
    23:00 +12°C° 0 mm 1 mps 687 mmHg 75%

    26 March, Tuesday

    Time Temperature Precipitation Wind Pressure Humidity
    00:00 +10°C° 0 mm 0 mps 687 mmHg 77%
    01:00 +10°C° 0 mm 0 mps 687 mmHg 78%
    02:00 +9°C° 0 mm 0 mps 686 mmHg 79%
    03:00 +10°C° 0 mm 1 mps 686 mmHg 79%
    04:00 +10°C° 0 mm 1 mps 686 mmHg 80%
    05:00 +10°C° 0 mm 1 mps 686 mmHg 80%
    06:00 +10°C° 0 mm 1 mps 686 mmHg 79%
    07:00 +10°C° 0 mm 1 mps 686 mmHg 79%
    08:00 +12°C° 0 mm 2 mps 687 mmHg 69%
    09:00 +13°C° 0 mm 3 mps 687 mmHg 58%
    10:00 +15°C° 0 mm 4 mps 688 mmHg 48%
    11:00 +17°C° 0 mm 4 mps 688 mmHg 44%
    12:00 +17°C° 0 mm 5 mps 688 mmHg 41%
    13:00 +19°C° 0 mm 5 mps 688 mmHg 38%
    14:00 +19°C° 0 mm 5 mps 688 mmHg 38%
    15:00 +19°C° 0 mm 5 mps 687 mmHg 38%
    16:00 +19°C° 0 mm 5 mps 687 mmHg 38%
    17:00 +16°C° 0 mm 5 mps 687 mmHg 43%
    18:00 +15°C° 0 mm 5 mps 687 mmHg 47%
    19:00 +13°C° 0 mm 5 mps 687 mmHg 52%
    20:00 +12°C° 0 mm 4 mps 688 mmHg 57%
    21:00 +11°C° 0 mm 3 mps 688 mmHg 63%
    22:00 +10°C° 0 mm 3 mps 689 mmHg 68%
    23:00 +9°C° 0 mm 3 mps 689 mmHg 71%

    27 March, Wednesday

    Time Temperature Precipitation Wind Pressure Humidity
    00:00 +9°C° 0 mm 3 mps 689 mmHg 73%
    01:00 +8°C° 0 mm 2 mps 689 mmHg 76%
    02:00 +7°C° 0 mm 3 mps 689 mmHg 81%
    03:00 +7°C° 0 mm 3 mps 689 mmHg 85%
    04:00 +5°C° 0 mm 3 mps 689 mmHg 90%
    05:00 +5°C° 0 mm 3 mps 689 mmHg 91%
    06:00 +4°C° 0 mm 3 mps 689 mmHg 91%
    07:00 +5°C° 0 mm 2 mps 689 mmHg 92%
    08:00 +7°C° 0 mm 3 mps 690 mmHg 75%
    09:00 +8°C° 0 mm 3 mps 690 mmHg 59%
    10:00 +10°C° 0 mm 3 mps 691 mmHg 42%
    11:00 +11°C° 0 mm 3 mps 691 mmHg 37%
    12:00 +12°C° 0 mm 3 mps 691 mmHg 31%
    13:00 +14°C° 0 mm 3 mps 691 mmHg 26%
    14:00 +14°C° 0 mm 4 mps 691 mmHg 26%
    15:00 +14°C° 0 mm 4 mps 690 mmHg 26%
    16:00 +15°C° 0 mm 4 mps 690 mmHg 27%
    17:00 +14°C° 0 mm 4 mps 690 mmHg 33%
    18:00 +12°C° 0 mm 3 mps 690 mmHg 39%
    19:00 +11°C° 0 mm 3 mps 690 mmHg 46%
    20:00 +11°C° 0 mm 3 mps 690 mmHg 52%
    21:00 +10°C° 0 mm 2 mps 691 mmHg 58%
    22:00 +10°C° 0 mm 1 mps 691 mmHg 64%
    23:00 +10°C° 0 mm 1 mps 691 mmHg 65%
    Show more